Location: ???? ?????????
(44.3677°N, 135.2344°E)
Time: 17:32:19
(UTC+00:00)

Cosmos 1766 - Pass Details

Date: 19 May 2025
Orbit: 443 x 457 km, 82.5° (Epoch: 20 June)

Event Time Altitude Azimuth Distance (km) Brightness Sun altitude
Rises 13:40:35 0° 357° (N) 2,459 7.9 -23.5°
Reaches altitude 10° 13:42:44 10° 4° (N) 1,580 6.6 -23.6°
Enters shadow 13:45:06 34° 35° (NE) 751 4.3 -23.7°
